www.pogodaiklimat.ru

Погода и климат >> Архив погоды >> Индия >> Kozhikode


ПОГОДА в Kozhikode

  • Прогноз погоды в Kozhikode
  • Монитор погоды в Kozhikode
  • Климат города

АРХИВ ПОГОДЫ в Kozhikode

Время (UTC), дата Ветер
(напр.,м/с)
 
Видим.   Явления Облачность Т
(С)
Тd
(С)
f
(%)
Тe
(С)
Тes
(С)
Комфортность P
(гПа)
Po
(гПа)
Тmin
(С)
Tmax
(С)
R
(мм)
R24
(мм)
S
(см)
09 11.11 штиль 0 10 км 1/1 600 м
[Sc diur, vesp]
+32.4 +24.1 62 +45 +59 опасность
перегрева
1010.2 1010.0
12 11.11 штиль 0 10 км 5/3 600 м
[Sc diur, vesp Ci sp]
+31.4 +23.6 63 +42 +43 опасность
перегрева
1010.2 1010.0 +33.8
15 11.11 штиль 0 4000 м 3/1 600 м
[Sc diur, vesp Ci sp]
+28.4 +23.5 75 +39 +39 очень
душно
1012.8 1013.0
18 11.11 штиль 0 4000 м 3/1 600 м
[Sc diur, vesp Ci sp]
+27.2 +23.4 80 +37 +37 очень
душно
1012.8 1013.0
21 11.11 штиль 0 4000 м 3/1 600 м
[Sc diur, vesp Ci sp]
+26.4 +23.8 86 +36 +36 очень
душно
1011.1 1011.0
00 12.11 штиль 0 4000 м 3/1 600 м
[Sc diur, vesp Ci sp]
+25.6 +23.9 90 +35 +35 очень
душно
1010.9 1011.0
03 12.11 штиль 0 10 км 1/0
[Ci sp]
+27.2 +24.0 83 +38 +43 очень
душно
1012.2 1012.0 +25.0 +33.8
06 12.11 штиль 0 10 км 4/3 600 м
[Sc diur, vesp Ci sp]
+32.4 +25.1 65 +46 +60 опасность
перегрева
1012.1 1012.0
09 12.11 штиль 0 10 км 4/3 600 м
[Sc diur, vesp Ci fib]
+34.0 +25.3 61 +48 +59 опасность
перегрева
1009.6 1010.0
12 12.11 штиль 0 10 км 4/1 600 м
[Sc diur, vesp Ci sp]
+31.6 +25.1 69 +46 +46 опасность
перегрева
1009.2 1009.0 +34.4
15 12.11 штиль 0 4000 м 4/3 300 м
[Sc diur, vesp Ci sp]
+28.8 +24.5 78 +41 +41 опасность
перегрева
1011.3 1011.0
18 12.11 штиль 0 4000 м 5/3 300 м
[Sc diur, vesp Ci sp]
+27.4 +24.2 83 +38 +38 очень
душно
1011.1 1011.0
21 12.11 штиль 0 4000 м 5/3 300 м
[Sc diur, vesp Ci sp]
+26.6 +24.0 86 +37 +37 очень
душно
1009.6 1010.0
00 13.11 штиль 0 4000 м 4/1 300 м
[Sc diur, vesp Ci sp]
+25.0 +23.2 90 +33 +33 очень
душно
1009.9 1010.0
03 13.11 штиль 0 10 км 5/1 600 м
[Sc diur, vesp Ci sp]
+27.0 +23.5 81 +37 +41 очень
душно
1011.1 1011.0 +24.4 +34.4
06 13.11 штиль 0 10 км 4/1 600 м
[Sc diur, vesp Ci sp]
+33.4 +24.3 59 +46 +63 опасность
перегрева
1010.6 1011.0
09 13.11 штиль 0 10 км 3/1 600 м
[Sc diur, vesp Ci sp]
+34.0 +25.3 61 +48 +62 опасность
перегрева
1007.6 1008.0
12 13.11 штиль 0 10 км 4/3 600 м
[Sc diur, vesp Ci sp]
+31.0 +24.7 69 +44 +44 опасность
перегрева
1007.8 1008.0 +35.2
15 13.11 штиль 0 4000 м 3/3 600 м
[Sc diur, vesp]
+29.6 +25.4 78 +43 +43 опасность
перегрева
1009.6 1010.0
18 13.11 штиль 0 4000 м 4/3 600 м
[Sc diur, vesp]
+27.4 +24.2 83 +38 +38 очень
душно
1013.1 1013.0
21 13.11 штиль 0 4000 м ясно +25.6 +24.7 95 +36 +36 очень
душно
1008.3 1008.0
00 14.11 штиль 0 4000 м ясно +25.0 +24.1 95 +34 +34 очень
душно
1008.7 1009.0
03 14.11 штиль 0 10 км ясно +25.6 +23.9 90 +35 +40 очень
душно
1010.7 1011.0 +24.3 +35.2
06 14.11 штиль 0 10 км ясно +32.2 +23.6 61 +44 +64 опасность
перегрева
1010.2 1010.0
09 14.11 штиль 0 10 км ясно +34.2 +23.3 53 +45 +61 опасность
перегрева
1007.6 1008.0
12 14.11 штиль 0 10 км 4/3 600 м
[Sc diur, vesp Ci sp]
+30.6 +24.0 68 +42 +43 опасность
перегрева
1007.4 1020.6 +34.8
15 14.11 штиль 0 4000 м ясно +29.4 +27.5 90 +48 +48 опасность
перегрева
1010.8 1011.0
18 14.11 СЗ 2 2000 м дымка 9/5 600 м
[Cu Sc Ac trans]
+15.6 +12.8 83 +16 +16 1013.1 942.4
00 15.11 штиль 0 4000 м ясно +25.0 +24.4 96 +35 +35 очень
душно
1009.3 1009.0
03 15.11 штиль 0 10 км 1/1 600 м
[Sc diur, vesp]
+26.4 +21.6 75 +34 +38 очень
душно
1010.8 1011.0 +23.2 +34.8
06 15.11 штиль 0 10 км 1/0
[Ci fib]
+32.4 +23.2 58 +43 +63 опасность
перегрева
1010.8 1011.0
09 15.11 штиль 0 10 км 1/1 600 м
[Sc diur, vesp]
+34.0 +24.0 56 +46 +60 опасность
перегрева
1007.9 1008.0
12 15.11 З 2 10 км 3/1 600 м
[Sc diur, vesp Ci sp]
+32.0 +24.9 66 +45 +46 опасность
перегрева
1007.8 1008.0 +34.8
15 15.11 штиль 0 4000 м 3/3 300 м
[Sc diur, vesp]
+28.0 +23.0 74 +37 +37 очень
душно
1009.6 1010.0
18 15.11 штиль 0 4000 м 4/3 300 м
[Sc diur, vesp Ci sp]
+27.4 +23.0 77 +37 +37 очень
душно
1009.8 1010.0
21 15.11 штиль 0 4000 м 4/3 300 м
[Sc diur, vesp Ci sp]
+26.0 +23.4 86 +35 +35 очень
душно
1008.5 1009.0
00 16.11 штиль 0 4000 м 3/3 300 м
[Sc diur, vesp]
+26.0 +23.4 86 +35 +35 очень
душно
1007.8 1008.0
03 16.11 штиль 0 10 км 6/3 600 м
[Sc diur, vesp Ac trans Ci sp]
+28.6 +23.7 75 +39 +42 очень
душно
1010.0 1010.0 +25.8 +34.8
06 16.11 штиль 0 10 км 9/3 600 м
[Sc diur, vesp Ac As Ci sp]
+33.0 +22.2 53 +42 +50 опасность
перегрева
1009.6 1010.0
09 16.11 штиль 0 10 км 10/4 600 м
[Sc diur, vesp Ac As Ci sp]
+31.6 +25.1 69 +46 +50 опасность
перегрева
1006.6 1007.0
12 16.11 штиль 0 10 км 10/4 600 м
[Sc diur, vesp Ac As Ci sp]
+30.4 +24.1 69 +42 +42 опасность
перегрева
1006.8 1007.0 +33.9
15 16.11 штиль 0 4000 м 5/3 600 м
[Sc diur, vesp Ci sp]
+29.0 +24.1 75 +40 +40 очень
душно
1009.2 1009.0
18 16.11 штиль 0 4000 м 8/3 600 м
[Sc diur, vesp Ac trans Ci sp]
+27.4 +23.0 77 +37 +37 очень
душно
1010.2 1010.0
21 16.11 штиль 0 4000 м 5/4 600 м
[Sc diur, vesp Ac trans Ci sp]
+26.0 +24.4 91 +36 +36 очень
душно
1008.8 1009.0
00 17.11 штиль 0 4000 м 4/3 600 м
[Sc diur, vesp Ci sp]
+25.0 +24.1 95 +34 +34 очень
душно
1009.0 1009.0
03 17.11 штиль 0 10 км 8/3 600 м
[Sc diur, vesp Ac trans Ci sp]
+27.0 +22.6 77 +36 +38 очень
душно
1011.2 1011.0 +24.5 +33.9
06 17.11 ЮЗ 1 10 км 4/3 600 м
[Sc diur, vesp Ci sp]
+33.4 +24.3 59 +46 +58 опасность
перегрева
1011.4 1011.0
09 17.11 ЮЗ 1 4000 м 4/1 300 м
[Sc diur, vesp Ac trans Ci sp]
+31.6 +23.9 64 +43 +53 опасность
перегрева
1008.7 1009.0
12 17.11 ЮЗ 2 10 км 3/1 600 м
[Sc diur, vesp Ci sp]
+30.2 +24.5 72 +43 +43 опасность
перегрева
1008.9 1009.0 +34.6
15 17.11 штиль 0 4000 м 1/1 600 м
[Sc diur, vesp]
+28.4 +23.8 76 +39 +39 очень
душно
1011.1 1011.0
18 17.11 штиль 0 4000 м ясно +27.2 +23.4 80 +37 +37 очень
душно
1011.8 1012.0
21 17.11 штиль 0 4000 м ясно +26.6 +23.4 83 +36 +36 очень
душно
1010.0 1010.0
00 18.11 штиль 0 4000 м ясно +25.6 +23.3 87 +34 +34 очень
душно
1010.1 1010.0
03 18.11 СВ 1 10 км 3/1 600 м
[Sc diur, vesp Ci fib]
+27.4 +23.2 78 +37 +41 очень
душно
1012.4 1012.0 +25.0 +34.6
06 18.11 штиль 0 10 км 9/4 600 м
[Sc diur, vesp Ac As Ci sp]
+29.8 +23.7 70 +41 +48 опасность
перегрева
1012.4 1012.0

 

Местоположение метеостанции Kozhikode (Kerala, Индия): широта 11.25 долгота 75.78 высота над уровнем моря 5 м.

В архиве по умолчанию представлена погода в Kozhikode за последнюю неделю. Архивные данные за месяц целиком и за предыдущие месяцы, начиная с января 2011 года, Вы можете получить, выбрав интересующий диапазон дат из раскрывающегося списка и нажав кнопку "Ввод!".


*Определитесь, кто Вы:
робот инопланетянин человек

Внимание! Время в таблицах - всемирное. Для получения местного времени необходимо прибавить поправку, которая в Kozhikode равна 5.5 ч.

Смотрите также архив погоды в соседних городах и на ближайших метеорологических станциях:

Погода в Karipur (Kerala, Индия) (23 км)
Погода в Cannanore (Kerala, Индия) (81 км)
Погода в Thrissur (Kerala, Индия) (94 км)
Погода в Udhagamandalam (Tamil Nadu, Индия) (105 км)
Погода в Palakkad (Kerala, Индия) (109 км)
Погода в Coonoor (Tamil Nadu, Индия) (112 км)
Погода в Madikeri (Karnataka, Индия) (130 км)
Погода в Kochi (Kerala, Индия) (140 км)
Погода в Coimbatore (Tamil Nadu, Индия) (141 км)
Погода в Chamarajnagar (Karnataka, Индия) (146 км)

Пояснения к столбцам:

Ветер - указаны скорость ветра в м/с - средняя за 10 мин, порывы в срок и между сроками (в фигурных скобках) и направление, откуда дует ветер: С - северный, СВ - северо-восточный, В - восточный, ЮВ - юго-восточный, Ю - южный, ЮЗ - юго-западный, З - западный, СЗ - северо-западный.
Видимость - горизонтальная дальность видимости в метрах или километрах. При видимости от 1 до 10 км при отсутствии осадков обычно наблюдается дымка, при ухудшении видимости до 1 км и менее - туман. В сухую погоду видимость может ухудшаться дымом, пылью или мглою.
Явления - указаны атмосферные явления, наблюдавшиеся в срок или в последний час перед сроком; фигурными скобками обозначены явления, наблюдавшиеся между сроками (за 1-3 часа до срока); квадратными скобками обозначены град или гололедные отложения с указанием их диаметра в мм.
Облачность - указаны через наклонную черту общая и нижняя облачность в баллах и высота нижней границы облаков в метрах; квадратными скобками обозначены формы облаков: Ci - перистые, Cs - перисто-слоистые, Cc - перисто-кучевые, Ac - высококучевые, As - высокослоистые, Sc - слоисто-кучевые, Ns - слоисто-дождевые, Cu - кучевые, Cb - кучево-дождевые. Подробнее классификацию облаков см. в Атласе облаков (PDF).
T - Температура воздуха - температура, измеренная на высоте 2 м над землей.
Td - Температура точки росы - температура, при понижении до которой содержащийся в воздухе водяной пар достигнет насыщения.
f - Относительная влажность воздуха - влажноcть воздуха, измеренная на высоте 2 м над землей.
Te - Эффективная температура - температура, которую ощущает одетый по сезону человек в тени. Характеристика душности погоды. При расчете учитывается влияние влажности воздуха и скорости ветра на теплоощущения человека.
Tes - Эффективная температура на солнце - температура, которую ощущает человек, с поправкой на солнечный нагрев. Характеристика знойности погоды. Зависит от высоты солнца над горизонтом, облачности и скорости ветра. Ночью, в пасмурную погоду, а также при ветре 12 м/с и более поправка равна нулю.
P - Атмосферное давление - приведенное к уровню моря атмосферное давление.
Po - Атмосферное давление - измеренное на уровне метеостанции атмосферное давление.
Tmin - Минимальная температура - минимум температуры воздуха на высоте 2 м над землей.
Tmax - Максимальная температура - максимум температуры воздуха на высоте 2 м над землей.
R - Количество осадков - Количество выпавших осадков за период времени, мм. При наведении курсора мыши на число - период времени, за который выпало указанное количество осадков.
R24 - Количество осадков - Количество выпавших осадков за 24 часа, мм.
S - Снежный покров - Высота снежного покрова, см. При наведении курсора мыши на число - состояние снежного покрова и степень покрытия местности в баллах.